CCM26F LFML-LFKJ

Flight info

Callsign CCM26F
Flight time 0h 44m
Altitude 23000
Route TINOT Z154 RUBAS
Aircraft A20N/M-SDE2E3FGHIRWXY/LB1

Departure

Time 2026-05-07 10:58
Airport Marseille Provence Airport (LFML)

Arrival

Time 2026-05-07 11:43
Airport Ajaccio Napoléon Bonaparte airport (LFKJ)
Time Latitude Longitude Altitude Speed Heading
2026-05-07 10:36 43.43934 5.22253 45 ft 0 kts 61°
2026-05-07 10:48 43.43933 5.22249 45 ft 2 kts 62°
2026-05-07 10:49 43.43926 5.22230 45 ft 2 kts 61°
2026-05-07 10:49 43.43919 5.22212 45 ft 2 kts 61°
2026-05-07 10:49 43.43912 5.22195 45 ft 2 kts 61°
2026-05-07 10:49 43.43906 5.22176 45 ft 2 kts 87°
2026-05-07 10:50 43.43908 5.22156 45 ft 2 kts 109°
2026-05-07 10:50 43.43914 5.22139 45 ft 0 kts 132°
2026-05-07 10:50 43.43919 5.22133 45 ft 1 kts 137°
2026-05-07 10:50 43.43920 5.22132 45 ft 0 kts 136°
2026-05-07 10:53 43.43920 5.22131 45 ft 0 kts 136°
2026-05-07 10:53 43.43919 5.22133 45 ft 0 kts 136°
2026-05-07 10:53 43.43909 5.22143 45 ft 2 kts 152°
2026-05-07 10:53 43.43883 5.22144 46 ft 5 kts 195°
2026-05-07 10:54 43.43839 5.22104 46 ft 10 kts 222°
2026-05-07 10:54 43.43768 5.22034 46 ft 14 kts 191°
2026-05-07 10:54 43.43673 5.22079 49 ft 15 kts 149°
2026-05-07 10:54 43.43572 5.22162 52 ft 18 kts 149°
2026-05-07 10:55 43.43458 5.22252 55 ft 19 kts 152°
2026-05-07 10:55 43.43330 5.22336 58 ft 21 kts 135°
2026-05-07 10:55 43.43225 5.22480 63 ft 21 kts 134°
2026-05-07 10:55 43.43114 5.22635 66 ft 23 kts 134°
2026-05-07 10:56 43.43006 5.22785 70 ft 20 kts 134°
2026-05-07 10:56 43.42914 5.22869 72 ft 11 kts 180°
2026-05-07 10:56 43.42856 5.22821 73 ft 10 kts 227°
2026-05-07 10:56 43.42828 5.22727 72 ft 12 kts 281°
2026-05-07 10:57 43.42882 5.22627 70 ft 14 kts 314°
2026-05-07 10:57 43.42957 5.22519 67 ft 16 kts 313°
2026-05-07 10:57 43.43054 5.22381 64 ft 37 kts 314°
2026-05-07 10:57 43.43443 5.21828 49 ft 120 kts 314°
2026-05-07 10:58 43.44181 5.20787 76 ft 180 kts 314°
2026-05-07 10:58 43.45094 5.19509 663 ft 195 kts 314°
2026-05-07 10:58 43.46051 5.18166 1473 ft 202 kts 314°
2026-05-07 10:58 43.46970 5.16785 2361 ft 200 kts 307°
2026-05-07 10:59 43.47487 5.14974 2905 ft 216 kts 275°
2026-05-07 10:59 43.47179 5.12916 3520 ft 232 kts 240°
2026-05-07 10:59 43.46028 5.11420 4450 ft 232 kts 205°
2026-05-07 10:59 43.44524 5.10797 5393 ft 230 kts 194°
2026-05-07 11:00 43.42979 5.10268 6224 ft 233 kts 195°
2026-05-07 11:00 43.41403 5.09710 7096 ft 235 kts 195°
2026-05-07 11:00 43.39851 5.09148 7945 ft 236 kts 195°
2026-05-07 11:00 43.38278 5.08577 8780 ft 237 kts 195°
2026-05-07 11:01 43.36643 5.08026 9352 ft 251 kts 194°
2026-05-07 11:01 43.34890 5.07453 9841 ft 269 kts 194°
2026-05-07 11:01 43.32999 5.06837 10374 ft 287 kts 194°
2026-05-07 11:01 43.31009 5.06184 10828 ft 305 kts 194°
2026-05-07 11:02 43.28881 5.05484 11249 ft 323 kts 194°
2026-05-07 11:02 43.26650 5.04749 11649 ft 341 kts 194°
2026-05-07 11:02 43.24247 5.04273 11968 ft 361 kts 179°
2026-05-07 11:02 43.21723 5.05011 12341 ft 378 kts 160°
2026-05-07 11:03 43.19247 5.06314 12995 ft 384 kts 160°
2026-05-07 11:03 43.16764 5.07596 13725 ft 388 kts 160°
2026-05-07 11:03 43.14230 5.08893 14417 ft 392 kts 160°
2026-05-07 11:03 43.11665 5.10203 15090 ft 395 kts 160°
2026-05-07 11:04 43.09084 5.11519 15752 ft 399 kts 160°
2026-05-07 11:04 43.06506 5.12832 16403 ft 402 kts 161°
2026-05-07 11:04 43.03845 5.14186 17036 ft 406 kts 160°
2026-05-07 11:04 43.01203 5.15527 17648 ft 410 kts 161°
2026-05-07 11:05 42.98521 5.16890 18255 ft 413 kts 161°
2026-05-07 11:05 42.95836 5.18255 18843 ft 416 kts 161°
2026-05-07 11:05 42.93140 5.19625 19404 ft 419 kts 161°
2026-05-07 11:05 42.90400 5.21014 19945 ft 423 kts 161°
2026-05-07 11:06 42.87635 5.22416 20477 ft 426 kts 162°
2026-05-07 11:06 42.84849 5.23825 20999 ft 430 kts 162°
2026-05-07 11:06 42.82020 5.25254 21509 ft 433 kts 162°
2026-05-07 11:06 42.79205 5.26674 22006 ft 436 kts 162°
2026-05-07 11:07 42.76353 5.28111 22491 ft 439 kts 162°
2026-05-07 11:07 42.73478 5.29613 22879 ft 444 kts 158°
2026-05-07 11:07 42.70894 5.31922 22979 ft 453 kts 140°
2026-05-07 11:07 42.68916 5.35259 22977 ft 460 kts 122°
2026-05-07 11:08 42.67679 5.39224 22992 ft 463 kts 110°
2026-05-07 11:08 42.66668 5.43391 22981 ft 463 kts 110°
2026-05-07 11:08 42.65672 5.47538 22982 ft 463 kts 110°
2026-05-07 11:08 42.64671 5.51664 22981 ft 462 kts 110°
2026-05-07 11:09 42.63654 5.55792 22982 ft 462 kts 110°
2026-05-07 11:09 42.62626 5.59925 22977 ft 463 kts 110°
2026-05-07 11:09 42.61592 5.64044 22975 ft 463 kts 110°
2026-05-07 11:09 42.60551 5.68175 22973 ft 463 kts 111°
2026-05-07 11:10 42.59507 5.72303 22975 ft 464 kts 111°
2026-05-07 11:10 42.58462 5.76422 22969 ft 464 kts 111°
2026-05-07 11:10 42.57406 5.80582 22970 ft 464 kts 111°
2026-05-07 11:10 42.56357 5.84705 22971 ft 465 kts 111°
2026-05-07 11:11 42.55304 5.88833 22967 ft 464 kts 111°
2026-05-07 11:11 42.54262 5.92910 22970 ft 465 kts 111°
2026-05-07 11:11 42.53203 5.97047 22969 ft 465 kts 111°
2026-05-07 11:11 42.52137 6.01210 22968 ft 465 kts 111°
2026-05-07 11:12 42.51080 6.05328 22966 ft 465 kts 111°
2026-05-07 11:12 42.50023 6.09432 22968 ft 465 kts 111°
2026-05-07 11:12 42.48951 6.13588 22968 ft 465 kts 111°
2026-05-07 11:12 42.47891 6.17693 22967 ft 465 kts 111°
2026-05-07 11:13 42.46829 6.21801 22968 ft 465 kts 111°
2026-05-07 11:13 42.45764 6.25913 22966 ft 465 kts 111°
2026-05-07 11:13 42.44698 6.30021 22967 ft 466 kts 111°
2026-05-07 11:13 42.43625 6.34151 22972 ft 466 kts 111°
2026-05-07 11:14 42.42548 6.38286 22966 ft 466 kts 111°
2026-05-07 11:14 42.41479 6.42396 22972 ft 467 kts 111°
2026-05-07 11:14 42.40388 6.46576 22963 ft 467 kts 111°
2026-05-07 11:14 42.39319 6.50662 22970 ft 468 kts 111°
2026-05-07 11:15 42.38234 6.54799 22969 ft 468 kts 111°
2026-05-07 11:15 42.37141 6.58960 22964 ft 468 kts 111°
2026-05-07 11:15 42.36054 6.63083 22968 ft 468 kts 111°
2026-05-07 11:15 42.34968 6.67194 22970 ft 468 kts 112°
2026-05-07 11:16 42.33865 6.71367 22970 ft 468 kts 112°
2026-05-07 11:16 42.32785 6.75445 22969 ft 468 kts 112°
2026-05-07 11:16 42.31685 6.79594 22968 ft 468 kts 112°
2026-05-07 11:16 42.30592 6.83712 22974 ft 468 kts 112°
2026-05-07 11:17 42.29493 6.87843 22974 ft 468 kts 112°
2026-05-07 11:17 42.28396 6.91958 22969 ft 469 kts 112°
2026-05-07 11:17 42.27290 6.96101 22973 ft 469 kts 112°
2026-05-07 11:17 42.26191 7.00209 22971 ft 469 kts 112°
2026-05-07 11:18 42.25083 7.04350 22974 ft 469 kts 112°
2026-05-07 11:18 42.23974 7.08492 22973 ft 470 kts 112°
2026-05-07 11:18 42.22860 7.12640 22972 ft 470 kts 112°
2026-05-07 11:18 42.21749 7.16772 22973 ft 471 kts 112°
2026-05-07 11:19 42.20638 7.20895 22972 ft 471 kts 112°
2026-05-07 11:19 42.19513 7.25062 22971 ft 471 kts 112°
2026-05-07 11:19 42.18397 7.29188 22973 ft 471 kts 113°
2026-05-07 11:19 42.17273 7.33342 22975 ft 472 kts 113°
2026-05-07 11:20 42.16157 7.37454 22972 ft 471 kts 113°
2026-05-07 11:20 42.15037 7.41567 22972 ft 471 kts 112°
2026-05-07 11:20 42.13906 7.45727 22969 ft 471 kts 113°
2026-05-07 11:20 42.12779 7.49863 22544 ft 470 kts 113°
2026-05-07 11:21 42.11670 7.53919 21977 ft 465 kts 112°
2026-05-07 11:21 42.10560 7.57977 21390 ft 461 kts 112°
2026-05-07 11:21 42.09466 7.61971 20809 ft 456 kts 112°
2026-05-07 11:21 42.08362 7.65993 20208 ft 451 kts 113°
2026-05-07 11:22 42.07288 7.69904 19617 ft 446 kts 113°
2026-05-07 11:22 42.06229 7.73749 19031 ft 441 kts 113°
2026-05-07 11:22 42.05170 7.77588 18439 ft 437 kts 112°
2026-05-07 11:22 42.04118 7.81403 17855 ft 432 kts 112°
2026-05-07 11:23 42.03082 7.85154 17268 ft 428 kts 112°
2026-05-07 11:23 42.02049 7.88886 16678 ft 423 kts 112°
2026-05-07 11:23 42.01044 7.92507 16110 ft 419 kts 112°
2026-05-07 11:23 42.00030 7.96152 15529 ft 414 kts 112°
2026-05-07 11:24 41.99011 7.99749 14935 ft 410 kts 115°
2026-05-07 11:24 41.97643 8.03043 14318 ft 402 kts 127°
2026-05-07 11:24 41.95814 8.05850 13763 ft 396 kts 139°
2026-05-07 11:24 41.93749 8.08243 13190 ft 392 kts 142°
2026-05-07 11:25 41.91680 8.10533 12595 ft 389 kts 142°
2026-05-07 11:25 41.89606 8.12824 12015 ft 385 kts 142°
2026-05-07 11:25 41.87535 8.15123 11478 ft 380 kts 142°
2026-05-07 11:25 41.85551 8.17333 11192 ft 369 kts 141°
2026-05-07 11:26 41.83599 8.19517 10962 ft 356 kts 142°
2026-05-07 11:26 41.81744 8.21593 10738 ft 343 kts 142°
2026-05-07 11:26 41.79937 8.23617 10520 ft 331 kts 141°
2026-05-07 11:26 41.78215 8.25544 10350 ft 319 kts 142°
2026-05-07 11:27 41.76553 8.27404 10194 ft 306 kts 142°
2026-05-07 11:27 41.74942 8.29204 10066 ft 295 kts 142°
2026-05-07 11:27 41.73396 8.30933 9914 ft 287 kts 142°
2026-05-07 11:27 41.71867 8.32636 9521 ft 286 kts 142°
2026-05-07 11:28 41.70357 8.34317 9164 ft 284 kts 142°
2026-05-07 11:28 41.68847 8.35996 8802 ft 282 kts 141°
2026-05-07 11:28 41.67348 8.37665 8458 ft 279 kts 141°
2026-05-07 11:28 41.65877 8.39332 8133 ft 277 kts 137°
2026-05-07 11:29 41.64609 8.41290 7878 ft 277 kts 125°
2026-05-07 11:29 41.63607 8.43529 7904 ft 283 kts 120°
2026-05-07 11:29 41.62682 8.45856 7952 ft 284 kts 115°
2026-05-07 11:29 41.62302 8.48405 7902 ft 286 kts 84°
2026-05-07 11:30 41.62935 8.50909 7912 ft 287 kts 57°
2026-05-07 11:30 41.64074 8.53015 7956 ft 272 kts 53°
2026-05-07 11:30 41.65159 8.54976 7965 ft 256 kts 53°
2026-05-07 11:30 41.66200 8.56802 7950 ft 241 kts 44°
2026-05-07 11:31 41.67588 8.57877 7925 ft 224 kts 11°
2026-05-07 11:31 41.69102 8.58226 7960 ft 221 kts
2026-05-07 11:31 41.70587 8.58543 8011 ft 205 kts
2026-05-07 11:31 41.71944 8.58846 7856 ft 194 kts
2026-05-07 11:32 41.74509 8.59450 7400 ft 180 kts
2026-05-07 11:32 41.75716 8.59742 7191 ft 172 kts
2026-05-07 11:32 41.76868 8.60024 6996 ft 164 kts
2026-05-07 11:33 41.77982 8.60297 6819 ft 163 kts
2026-05-07 11:33 41.79097 8.60571 6637 ft 163 kts
2026-05-07 11:33 41.80212 8.60845 6452 ft 162 kts
2026-05-07 11:33 41.81316 8.61118 6264 ft 162 kts
2026-05-07 11:34 41.82431 8.61394 6073 ft 161 kts
2026-05-07 11:34 41.83524 8.61665 5888 ft 160 kts
2026-05-07 11:34 41.84621 8.61937 5703 ft 159 kts
2026-05-07 11:34 41.85707 8.62207 5517 ft 159 kts
2026-05-07 11:35 41.86796 8.62478 5332 ft 158 kts
2026-05-07 11:35 41.87871 8.62745 5154 ft 157 kts
2026-05-07 11:35 41.88938 8.63010 4978 ft 156 kts
2026-05-07 11:35 41.90001 8.63274 4802 ft 155 kts
2026-05-07 11:36 41.91065 8.63537 4623 ft 155 kts
2026-05-07 11:36 41.92134 8.63803 4444 ft 155 kts
2026-05-07 11:36 41.93185 8.64064 4263 ft 155 kts
2026-05-07 11:36 41.94249 8.64327 4084 ft 154 kts
2026-05-07 11:37 41.95297 8.64588 3901 ft 154 kts
2026-05-07 11:37 41.96347 8.64851 3721 ft 153 kts
2026-05-07 11:37 41.97393 8.65111 3543 ft 152 kts
2026-05-07 11:37 41.98430 8.65370 3366 ft 151 kts 10°
2026-05-07 11:38 41.99437 8.65762 3161 ft 152 kts 28°
2026-05-07 11:38 42.00204 8.66732 3000 ft 153 kts 57°
2026-05-07 11:38 42.00547 8.68099 2994 ft 156 kts 84°
2026-05-07 11:38 42.00456 8.69558 3001 ft 158 kts 98°
2026-05-07 11:39 42.00254 8.71005 2993 ft 159 kts 100°
2026-05-07 11:39 42.00040 8.72469 2997 ft 154 kts 100°
2026-05-07 11:39 41.99845 8.73832 2846 ft 147 kts 99°
2026-05-07 11:39 41.99664 8.75156 2609 ft 143 kts 99°
2026-05-07 11:40 41.99488 8.76468 2392 ft 143 kts 99°
2026-05-07 11:40 41.99316 8.77768 2175 ft 142 kts 99°
2026-05-07 11:40 41.99144 8.79085 1951 ft 142 kts 99°
2026-05-07 11:40 41.98973 8.80385 1729 ft 142 kts 99°
2026-05-07 11:41 41.98642 8.81605 1498 ft 141 kts 126°
2026-05-07 11:41 41.97927 8.82488 1279 ft 139 kts 153°
2026-05-07 11:41 41.97024 8.82844 1074 ft 135 kts 179°
2026-05-07 11:41 41.96112 8.82652 808 ft 132 kts 202°
2026-05-07 11:42 41.95294 8.82114 570 ft 129 kts 208°
2026-05-07 11:42 41.94493 8.81572 376 ft 128 kts 204°
2026-05-07 11:42 41.93700 8.81062 204 ft 127 kts 204°
2026-05-07 11:42 41.92902 8.80555 54 ft 125 kts 202°
2026-05-07 11:43 41.92208 8.80136 36 ft 75 kts 205°
2026-05-07 11:43 41.91925 8.79955 35 ft 35 kts 205°
2026-05-07 11:43 41.91717 8.79824 36 ft 30 kts 205°
2026-05-07 11:43 41.91549 8.79720 36 ft 23 kts 204°
2026-05-07 11:44 41.91413 8.79635 36 ft 20 kts 206°
2026-05-07 11:44 41.91291 8.79556 36 ft 18 kts 208°
2026-05-07 11:44 41.91266 8.79423 36 ft 16 kts 314°
2026-05-07 11:44 41.91363 8.79351 36 ft 15 kts 339°
2026-05-07 11:45 41.91467 8.79347 36 ft 14 kts 17°
2026-05-07 11:45 41.91563 8.79400 36 ft 15 kts 25°
2026-05-07 11:45 41.91659 8.79460 36 ft 14 kts 24°
2026-05-07 11:45 41.91712 8.79456 36 ft 5 kts 326°
2026-05-07 11:46 41.91743 8.79439 36 ft 3 kts 343°
2026-05-07 11:46 41.91758 8.79433 36 ft 0 kts 345°